Regional Weather Roundup
Issued by NWS Albany, NY

Home | Current Version | Previous Version | Text Only | Print | Product List | Glossary On
Versions: 1 2 3 4 5 6 7 8 9 10 11 12 13 14 15 16 17 18 19 20 21 22 23 24 25 26 27 28 29 30 31 32 33 34 35 36 37 38 39 40 41 42 43 44 45 46 47 48 49 50
000
ASUS41 KALY 162210
RWRALY

NEW YORK STATE HOURLY WEATHER ROUNDUP
NATIONAL WEATHER SERVICE ALBANY NY
600 PM EDT TUE SEP 16 2014

NOTE: "FAIR" INDICATES FEW OR NO CLOUDS BELOW 12,000 FEET WITH NO
SIGNIFICANT WEATHER AND/OR NO OBSTRUCTIONS TO VISIBILITY.

NYZ032-033-038>043-046>054-057>066-NYZ062>081-162300-
EAST


CITY           SKY/WX    TMP DP  RH WIND       PRES   REMARKS
ALBANY         MOSUNNY   66  51  58 W6        29.97S
GLENS FALLS    SUNNY     65  50  58 SW6       29.94S
POUGHKEEPSIE   CLOUDY    67  53  61 CALM      29.97S
NEWBURGH       PTSUNNY   66  55  68 VRB6      30.00R
MONTGOMERY     CLOUDY    65  50  58 CALM      29.98S
WHITE PLAINS   PTSUNNY   66  52  60 N6        29.98R
ISLIP          PTSUNNY   64  57  78 W3        29.97R
NEW YORK CITY  PTSUNNY   64  57  78 VRB5      29.97R
CENTRAL PARK   CLOUDY    67  58  72 CALM      30.00R
$$

NYZ005>009-017-018-044>046-055-056-162300-
CENTRAL


CITY           SKY/WX    TMP DP  RH WIND       PRES   REMARKS
FULTON         SUNNY     61  48  62 W12       30.02S
SYRACUSE       MOSUNNY   65  45  48 W10       30.02R
ROME           SUNNY     62  45  53 NW10      30.02R
ELMIRA         SUNNY     64  46  52 NW7       30.03R
BINGHAMTON     MOSUNNY   59  46  62 NW7       30.03S
MONTICELLO     MOSUNNY   61  50  67 NW7       30.02S
$$

NYZ026>034-041>043-162300-
NORTH


CITY           SKY/WX    TMP DP  RH WIND       PRES   REMARKS
WATERTOWN      PTSUNNY   63  50  62 SW13      29.99S
FORT DRUM      NOT AVBL
MASSENA        SUNNY     63  46  54 W9        29.95R
SARANAC LAKE   MOSUNNY   58  42  55 VRB5      29.95R
PLATTSBURGH    MOSUNNY   63  53  70 CALM      29.93R
$$

NYZ001>004-010>016-019>021-162300-
WEST


CITY           SKY/WX    TMP DP  RH WIND       PRES   REMARKS
NIAGARA FALLS  MOSUNNY   62  41  46 NW13      30.04S
BUFFALO        PTSUNNY   61  45  55 SW13      30.05R
DUNKIRK        SUNNY     61  45  55 SW10      30.07S
JAMESTOWN      MOSUNNY   57  37  47 W6        30.09R
WELLSVILLE     MOSUNNY   58  42  55 W9        30.08R
ROCHESTER      MOSUNNY   64  39  39 NW8       30.04R
PENN YAN       PTSUNNY   64  45  49 NW8       30.04R
$$

             KEY
       WCI = WIND CHILL INDEX
       VSB = VISIBILITY
       HX  = HEAT INDEX
$$



USA.gov is the U.S. government's official web portal to all federal, state and local government web resources and services.